IRIDIUM 106 1 41917U 17003A 26263.46905573 .00000109 00000+0 31688-4 0 9990 2 41917 86.3949 48.6876 0001838 87.1399 273.0007 14.34217044506863 IRIDIUM 103 1 41918U 17003B 26263.45636960 .00000167 00000+0 52649-4 0 9995 2 41918 86.3949 48.5924 0002252 88.9549 271.1905 14.34217868506886 IRIDIUM 109 1 41919U 17003C 26263.46272443 .00000162 00000+0 50696-4 0 9994 2 41919 86.3949 48.6507 0002153 91.8604 268.2839 14.34215381506858 IRIDIUM 102 1 41920U 17003D 26263.64030340 .00000168 00000+0 52874-4 0 9990 2 41920 86.3950 48.4981 0002059 92.7887 267.3544 14.34216943506964 IRIDIUM 105 1 41921U 17003E 26263.38959753 .00000024 00000+0 13661-5 0 9993 2 41921 86.4015 17.0597 0002360 97.4577 262.6887 14.34217799508786 IRIDIUM 104 1 41922U 17003F 26263.65299469 .00000272 00000+0 90159-4 0 9996 2 41922 86.3951 48.5368 0002411 92.5475 267.5997 14.34220199506951 IRIDIUM 114 1 41923U 17003G 26263.45003191 .00000167 00000+0 52479-4 0 9996 2 41923 86.3951 48.6045 0002205 90.7010 269.4439 14.34217548506902 IRIDIUM 108 1 41924U 17003H 26263.40854735 .00000065 00000+0 16014-4 0 9992 2 41924 86.4011 16.9361 0002165 96.3950 263.7493 14.34217876508756 IRIDIUM 112 1 41925U 17003J 26263.43734129 .00000164 00000+0 51604-4 0 9994 2 41925 86.3947 48.4475 0002174 92.9947 267.1497 14.34218120506920 IRIDIUM 111 1 41926U 17003K 26263.42466061 .00000165 00000+0 51845-4 0 9999 2 41926 86.3948 48.5256 0002127 90.7474 269.3966 14.34217498506909 IRIDIUM 113 1 42803U 17039A 26263.47438849 .00000028 00000+0 28027-5 0 9996 2 42803 86.3918 282.3463 0002338 92.3075 267.8388 14.34217595484845 IRIDIUM 123 1 42804U 17039B 26263.23679330 .00000040 00000+0 73190-5 0 9998 2 42804 86.3973 313.9275 0002225 90.6604 269.4847 14.34217702483570 IRIDIUM 120 1 42805U 17039C 26263.46804542 .00000058 00000+0 13565-4 0 9997 2 42805 86.3907 282.1187 0002134 91.0400 269.1040 14.34217754484834 IRIDIUM 115 1 42806U 17039D 26263.44847470 .00000073 00000+0 15794-4 0 9996 2 42806 86.4445 282.2688 0002277 86.1200 274.0261 14.43279631488006 IRIDIUM 118 1 42807U 17039E 26262.08244138 .00000107 00000+0 31297-4 0 9992 2 42807 86.3975 314.4077 0002248 94.9692 265.1760 14.34218072483400 IRIDIUM 117 1 42808U 17039F 26263.35730260 .00000042 00000+0 79941-5 0 9997 2 42808 86.3973 313.8315 0002242 92.6974 267.4479 14.34217628483610 IRIDIUM 126 1 42809U 17039G 26263.38267333 .00000045 00000+0 89360-5 0 9996 2 42809 86.3973 313.8737 0002350 92.8238 267.3227 14.34217653483599 IRIDIUM 124 1 42810U 17039H 26263.45162397 .00000125 00000+0 31279-4 0 9994 2 42810 86.4440 250.5053 0002337 86.4333 273.7135 14.43280709488854 IRIDIUM 128 1 42811U 17039J 26263.23387401 -.00000090 00000+0 -39119-4 0 9990 2 42811 86.4015 345.4347 0001973 93.9484 266.1937 14.34217328483609 IRIDIUM 121 1 42812U 17039K 26263.47147014 .00000135 00000+0 41081-4 0 9990 2 42812 86.3974 313.8648 0002168 94.4426 265.7017 14.34217951483487 IRIDIUM 133 1 42955U 17061A 26263.26558729 .00000019 00000+0 -18146-6 0 9999 2 42955 86.4023 345.5418 0002171 94.4741 265.6702 14.34217700468409 IRIDIUM 100 1 42956U 17061B 26263.46854992 .00000039 00000+0 70022-5 0 9994 2 42956 86.4022 345.3735 0002191 95.0986 265.0460 14.34217848468430 IRIDIUM 122 1 42957U 17061C 26263.50660566 .00000137 00000+0 41910-4 0 9994 2 42957 86.4023 345.3581 0002236 92.7842 267.3610 14.34218032468445 IRIDIUM 129 1 42958U 17061D 26263.60174507 .00000034 00000+0 50275-5 0 9992 2 42958 86.4026 345.3865 0002395 97.6221 262.5247 14.34217733468478 IRIDIUM 119 1 42959U 17061E 26262.94211510 .00000054 00000+0 12141-4 0 9996 2 42959 86.4023 345.6580 0002264 94.0464 266.0990 14.34217843468395 IRIDIUM 107 1 42960U 17061F 26263.51929126 .00000142 00000+0 43796-4 0 9999 2 42960 86.4023 345.4384 0002172 89.6389 270.5056 14.34217625468482 IRIDIUM 132 1 42961U 17061G 26263.52563332 .00000016 00000+0 -13937-5 0 9990 2 42961 86.4021 345.4148 0002097 95.4306 264.7129 14.34217627468487 IRIDIUM 136 1 42962U 17061H 26262.92942909 .00000063 00000+0 15256-4 0 9991 2 42962 86.4024 345.6710 0002182 95.2325 264.9119 14.34218101468414 IRIDIUM 139 1 42963U 17061J 26263.49392055 .00000032 00000+0 45353-5 0 9994 2 42963 86.4026 345.4989 0002181 94.0387 266.1058 14.34217747468508 IRIDIUM 125 1 42964U 17061K 26263.27193026 .00000014 00000+0 -20881-5 0 9998 2 42964 86.4029 345.6544 0002594 86.2786 273.8706 14.34217805468482 IRIDIUM 135 1 43070U 17083A 26263.45536057 .00000011 00000+0 -31342-5 0 9997 2 43070 86.3910 282.1845 0002144 91.8901 268.2540 14.34217507457807 IRIDIUM 138 1 43071U 17083B 26263.48073156 .00000035 00000+0 56050-5 0 9995 2 43071 86.3926 281.8842 0002406 90.9330 269.2142 14.34217537457795 IRIDIUM 116 1 43072U 17083C 26263.44901744 .00000000 00000+0 -71019-5 0 9990 2 43072 86.3909 282.1720 0001896 90.4373 269.7040 14.34217446457825 IRIDIUM 130 1 43073U 17083D 26263.41730514 .00000011 00000+0 -31942-5 0 9996 2 43073 86.3919 282.4702 0001984 86.9879 273.1543 14.34217465457760 IRIDIUM 151 1 43074U 17083E 26263.46170300 -.00000049 00000+0 -24633-4 0 9993 2 43074 86.3911 282.2265 0002096 90.7683 269.3753 14.34217588457795 IRIDIUM 134 1 43075U 17083F 26263.42999086 -.00000021 00000+0 -14561-4 0 9999 2 43075 86.3912 282.2494 0002121 90.1849 269.9590 14.34217128457759 IRIDIUM 137 1 43076U 17083G 26263.58221224 .00000116 00000+0 34361-4 0 9992 2 43076 86.3916 282.2806 0002013 98.2139 261.9285 14.34217855457842 IRIDIUM 141 1 43077U 17083H 26263.43633278 -.00000012 00000+0 -11200-4 0 9997 2 43077 86.3909 282.1666 0002204 92.0102 268.1346 14.34217306457828 IRIDIUM 153 1 43078U 17083J 26263.52804657 .00000018 00000+0 -56031-6 0 9997 2 43078 86.3918 250.5897 0002305 86.5952 273.5507 14.34217408458943 IRIDIUM 131 1 43079U 17083K 26263.42364786 -.00000009 00000+0 -10348-4 0 9991 2 43079 86.3917 282.3646 0002159 92.2274 267.9170 14.34217138457757 IRIDIUM 144 1 43249U 18030A 26263.46462197 .00000001 00000+0 -67216-5 0 9990 2 43249 86.3913 250.5428 0002061 88.1761 271.9671 14.34217559443791 IRIDIUM 149 1 43250U 18030B 26263.54073338 .00000053 00000+0 11801-4 0 9990 2 43250 86.3914 250.4769 0002338 88.2175 271.9289 14.34217800443826 IRIDIUM 157 1 43251U 18030C 26263.42022366 .00000094 00000+0 26375-4 0 9990 2 43251 86.3916 250.5826 0002255 87.9121 272.2334 14.34217937443780 IRIDIUM 140 1 43252U 18030D 26263.43925031 .00000080 00000+0 21369-4 0 9996 2 43252 86.3916 250.5871 0002275 87.2489 272.8968 14.34217828443848 IRIDIUM 145 1 43253U 18030E 26263.42656661 -.00000022 00000+0 -14759-4 0 9999 2 43253 86.3915 250.5645 0001902 85.9727 274.1686 14.34217201443772 IRIDIUM 146 1 43254U 18030F 26263.47730488 .00000095 00000+0 26836-4 0 9992 2 43254 86.3919 250.5551 0002177 88.1163 272.0282 14.34217769443797 IRIDIUM 148 1 43255U 18030G 26263.58513153 .00000103 00000+0 29700-4 0 9996 2 43255 86.3917 250.5546 0002259 90.4515 269.6940 14.34217606443847 IRIDIUM 142 1 43256U 18030H 26263.41387908 .00000009 00000+0 -38634-5 0 9999 2 43256 86.3913 250.5118 0002011 88.6927 271.4499 14.34217443443783 IRIDIUM 150 1 43257U 18030J 26263.45193550 .00000036 00000+0 58020-5 0 9992 2 43257 86.3918 250.6153 0002221 87.1217 273.0233 14.34217548443812 IRIDIUM 143 1 43258U 18030K 26263.43290732 .00000051 00000+0 11259-4 0 9990 2 43258 86.3921 250.7197 0002186 85.1433 275.0013 14.34217415443747 IRIDIUM 161 1 43478U 18047C 26263.42956713 .00000186 00000+0 49325-4 0 9993 2 43478 86.4469 48.6125 0002299 95.4977 264.6487 14.43279595438870 IRIDIUM 152 1 43479U 18047D 26263.47539684 .00000194 00000+0 62248-4 0 9991 2 43479 86.3946 48.4559 0002146 91.9792 268.1650 14.34217559436147 IRIDIUM 147 1 43480U 18047E 26263.48175961 .00000166 00000+0 52154-4 0 9992 2 43480 86.3948 48.4601 0002023 91.9233 268.2194 14.34214436436148 IRIDIUM 110 1 43481U 18047F 26263.48808183 .00000058 00000+0 13596-4 0 9999 2 43481 86.3952 48.5517 0002345 95.2436 264.9028 14.34217951436133 IRIDIUM 162 1 43482U 18047G 26263.42325542 .00000214 00000+0 57733-4 0 9992 2 43482 86.4470 48.5051 0002299 92.3443 267.8021 14.43276277438860 IRIDIUM 160 1 43569U 18061A 26263.29437821 .00000115 00000+0 34127-4 0 9995 2 43569 86.4011 17.0242 0002150 95.8413 264.3028 14.34218478427003 IRIDIUM 166 1 43570U 18061B 26263.38951921 .00000150 00000+0 46395-4 0 9998 2 43570 86.4008 16.9332 0002097 96.3169 263.8266 14.34216939427045 IRIDIUM 158 1 43571U 18061C 26263.07873309 .00000081 00000+0 21779-4 0 9990 2 43571 86.4011 17.0731 0002181 92.1990 267.9455 14.34217433426960 IRIDIUM 165 1 43572U 18061D 26263.59248244 .00000026 00000+0 20614-5 0 9999 2 43572 86.4010 16.9070 0002097 93.4666 266.6769 14.34217694427069 IRIDIUM 155 1 43573U 18061E 26263.55442647 .00000032 00000+0 44026-5 0 9999 2 43573 86.4009 16.7876 0002114 92.0710 268.0728 14.34217767427023 IRIDIUM 154 1 43574U 18061F 26263.60516728 .00000015 00000+0 -15622-5 0 9990 2 43574 86.4010 16.9046 0001963 95.0391 265.1029 14.34217626427088 IRIDIUM 163 1 43575U 18061G 26263.58613999 .00000137 00000+0 41967-4 0 9990 2 43575 86.4009 16.8247 0002188 94.6645 265.4801 14.34217985427052 IRIDIUM 156 1 43576U 18061H 26263.56076860 .00000102 00000+0 29463-4 0 9998 2 43576 86.4009 16.8427 0002124 91.4751 268.6689 14.34216637427047 IRIDIUM 164 1 43577U 18061J 26263.40220325 .00000151 00000+0 47007-4 0 9997 2 43577 86.4015 16.9510 0001997 96.1150 264.0274 14.34217252427067 IRIDIUM 159 1 43578U 18061K 26263.57979751 .00000020 00000+0 13561-6 0 9995 2 43578 86.4008 16.8114 0002217 95.2446 264.9002 14.34217513427050 IRIDIUM 180 1 43922U 19002A 26263.43975652 .00000038 00000+0 63352-5 0 9996 2 43922 86.3970 313.8022 0002260 95.6315 264.5139 14.34217760402644 IRIDIUM 176 1 43923U 19002B 26263.10989112 .00000396 00000+0 58924-4 0 9992 2 43923 86.6092 313.8703 0002411 92.6738 267.4755 14.72250131413215 IRIDIUM 168 1 43924U 19002C 26263.22410826 .00000087 00000+0 23974-4 0 9991 2 43924 86.3974 313.9722 0002254 95.3592 264.7861 14.34217231402596 IRIDIUM 173 1 43925U 19002D 26263.00211805 .00000022 00000+0 71386-6 0 9995 2 43925 86.3970 313.9500 0002274 93.3035 266.8421 14.34217365402547 IRIDIUM 169 1 43926U 19002E 26263.26542756 .00000167 00000+0 47964-4 0 9999 2 43926 86.4279 345.4659 0002235 84.7899 275.3554 14.38607033403895 IRIDIUM 172 1 43927U 19002F 26263.41438614 .00000129 00000+0 38897-4 0 9997 2 43927 86.3974 313.7856 0002268 93.9475 266.1980 14.34216745402614 IRIDIUM 175 1 43928U 19002G 26263.44380084 .00000121 00000+0 29754-4 0 9992 2 43928 86.4470 250.6815 0000925 265.8034 94.3062 14.43646545412720 IRIDIUM 171 1 43929U 19002H 26263.46512620 .00000101 00000+0 28893-4 0 9999 2 43929 86.3982 314.0817 0002168 93.2571 266.8873 14.34218214402616 IRIDIUM 170 1 43930U 19002J 26263.45589284 .00000398 00000+0 59173-4 0 9993 2 43930 86.6092 313.7273 0002466 93.8476 266.3023 14.72252439413271 IRIDIUM 167 1 43931U 19002K 26263.24947862 .00000047 00000+0 98331-5 0 9992 2 43931 86.3970 313.8781 0002059 89.9695 270.1737 14.34217419402580 IRIDIUM 181 1 56726U 23068S 26263.29571138 .00000093 00000+0 21565-4 0 9994 2 56726 86.4546 17.0265 0002190 98.7378 261.4072 14.43309341176150 IRIDIUM 177 1 56727U 23068T 26263.34796378 .00000260 00000+0 33073-4 0 9999 2 56727 86.1918 283.6487 0002564 90.4222 269.7291 14.77166036180439 IRIDIUM 174 1 56728U 23068U 26263.10369778 .00000311 00000+0 45376-4 0 9990 2 56728 86.6103 314.0324 0002575 90.0064 270.1448 14.72249996179982 IRIDIUM 178 1 56729U 23068V 26263.57365898 .00000593 00000+0 74893-4 0 9999 2 56729 86.6592 345.5305 0002533 93.0307 267.1205 14.80045626180476 IRIDIUM 179 1 56730U 23068W 26263.50068152 .00000599 00000+0 75690-4 0 9999 2 56730 86.6838 354.8177 0002382 90.7763 269.3732 14.80037817180464